Location: Clair
(33.8067°N, 117.9845°W)
Time: 07:53:40
(UTC+00:00)

Aureole 1 Rocket - Pass Details

Date: 14 February 2026
Orbit: 374 x 1157 km, 73.9° (Epoch: 12 March)

Event Time Altitude Azimuth Distance (km) Brightness Sun altitude
Rises 13:16:30 0° 192° (SSW) 4,008 7.1 -17.3°
Reaches altitude 10° 13:19:13 10° 191° (S) 3,057 6.5 -16.8°
Maximum altitude 13:26:37 81° 106° (ESE) 1,138 4.4 -15.2°
Drops below altitude 10° 13:33:25 10° 20° (NNE) 2,819 6.6 -13.8°
Sets 13:35:50 0° 19° (NNE) 3,681 7.2 -13.3°
